CAPE
0 0 0 0 0 0 0 0 0 0 4 0 0 536 489 416 346 291 215 157 100 56 3 3 10 20 15 59 6 1 0 3
0 0 0 0 0 0 0 0 0 1 3 6 1 0 363 510 371 331 271 196 116 72 12 0 1 7 0 30 2 0 3 1
0 0 0 0 0 0 0 0 0 1 2 3 3 5 0 529 453 356 350 283 144 35 1 3 3 3 5 7 5 6 1 2
0 0 0 0 0 0 0 0 0 1 1 2 4 1 18 544 443 410 372 278 68 7 1 7 5 3 3 1 5 2 1 2
0 0 0 0 0 0 0 0 1 0 1 2 5 7 7 1 300 411 376 285 103 9 2 1 0 2 3 6 2 2 1 1
0 0 0 0 0 0 0 0 1 2 1 1 4 6 5 3 4 426 320 325 155 22 2 2 4 2 3 1 13 2 1 1
0 0 0 0 0 0 0 0 0 0 2 1 2 3 4 7 6 85 292 298 178 8 5 3 1 22 2 0 4 47 5 3
0 0 0 0 0 0 0 0 0 0 0 3 1 2 2 6 6 6 45 264 165 57 3 2 9 42 19 17 2 23 23 56
0 0 0 0 0 0 0 0 0 0 0 1 2 1 2 2 3 6 6 19 298 161 13 2 2 17 54 20 22 27 46 77
0 0 0 0 0 0 0 0 0 0 0 0 1 1 1 2 2 3 3 4 152 307 110 2 2 2 6 30 32 30 15 24
0 0 0 0 0 0 0 0 0 0 0 0 2 1 2 1 2 3 3 2 2 252 151 41 4 2 5 16 35 53 28 38
0 0 0 0 0 0 0 0 0 0 0 0 1 1 1 2 1 1 2 3 3 5 208 104 15 2 3 7 11 44 20 20
0 0 0 0 0 0 0 0 0 0 0 0 0 0 1 1 2 1 2 2 2 4 15 97 70 2 2 2 4 6 0 6
0 0 0 0 0 0 0 0 0 0 0 0 0 0 0 1 2 3 2 2 3 3 5 0 77 26 2 1 2 2 0 0
0 0 0 0 0 0 0 0 0 0 0 0 0 0 0 0 1 4 2 2 2 2 4 3 0 0 0 17 3 1 1 1
0 0 0 0 0 0 0 0 0 0 0 0 0 0 0 0 1 3 3 2 2 2 3 4 4 3 0 0 8 6 4 1
0 0 0 0 0 0 0 0 0 0 0 0 0 0 0 0 1 3 0 1 2 2 2 6 6 1 2 0 2 13 11 24
0 0 0 0 0 0 0 0 0 0 0 0 0 0 0 0 1 2 2 0 2 3 4 3 3 3 1 2 0 57 60 2
0 0 0 0 0 0 0 0 0 0 0 0 0 0 0 0 0 1 1 1 2 2 3 2 4 3 1 4 1 1 42 64
CIN
-0 -0 -0 -0 -0 -0 -0 -0 -0 -0 -0 -0 -0 -15 -8 -15 -25 -23 -5 -0 -5 -0 -0 -0 -0 -1 -32 -0 -13 -0 -0 -77
-0 -0 -0 -0 -0 -0 -0 -0 -0 -0 -0 -0 -0 -0 -19 -5 -17 -27 -18 -4 -2 -0 -8 -0 -0 -1 -0 -3 -1 -0 -0 -0
-0 -0 -0 -0 -0 -0 -0 -0 -0 -0 -0 -0 -0 -0 -0 -3 -2 -4 -10 -3 -1 -6 -18 -55 -4 -0 -0 -0 -0 -0 -0 -0
-0 -0 -0 -0 -0 -0 -0 -0 -0 -0 -0 -0 -0 -0 -73 -0 -2 -2 -12 -11 -24 -39 -0 -38 -38 -0 -0 -0 -0 -0 -0 -0
-0 -0 -0 -0 -0 -0 -0 -0 -0 -0 -0 -0 -0 -0 -0 -0 -25 -10 -6 -4 -30 -106 -0 -0 -0 -0 -0 -0 -0 -0 -0 -0
-0 -0 -0 -0 -0 -0 -0 -0 -0 -0 -0 -0 -0 -0 -0 -0 -0 -0 -3 -0 -6 -56 -0 -0 -0 -0 -0 -8 -0 -2 -0 -0
-0 -0 -0 -0 -0 -0 -0 -0 -0 -0 -0 -0 -0 -0 -0 -0 -0 -27 -0 -0 -2 -60 -57 -73 -0 -43 -0 -0 -14 -1 -2 -19
-0 -0 -0 -0 -0 -0 -0 -0 -0 -0 -0 -0 -0 -0 -0 -0 -0 -0 -34 -4 -4 -29 -0 -0 -0 -20 -29 -5 -0 -6 -16 -7
-0 -0 -0 -0 -0 -0 -0 -0 -0 -0 -0 -0 -0 -0 -0 -0 -0 -0 -0 -44 -1 -27 -43 -37 -0 -23 -4 -23 -6 -3 -7 -1
-0 -0 -0 -0 -0 -0 -0 -0 -0 -0 -0 -0 -0 -0 -0 -0 -0 -0 -0 -0 -29 -0 -14 -15 -0 -0 -0 -6 -11 -5 -23 -13
-0 -0 -0 -0 -0 -0 -0 -0 -0 -0 -0 -0 -0 -0 -0 -0 -0 -0 -0 -0 -0 -0 -4 -13 -25 -0 -0 -0 -8 -7 -9 -5
-0 -0 -0 -0 -0 -0 -0 -0 -0 -0 -0 -0 -0 -0 -0 -0 -0 -0 -0 -0 -0 -31 -0 -2 -29 -0 -0 -15 -0 -7 -19 -3
-0 -0 -0 -0 -0 -0 -0 -0 -0 -0 -0 -0 -0 -0 -0 -0 -0 -0 -0 -0 -0 -0 -9 -25 -13 -0 -0 -0 -0 -5 -0 -9
-0 -0 -0 -0 -0 -0 -0 -0 -0 -0 -0 -0 -0 -0 -0 -0 -0 -0 -0 -0 -0 -0 -0 -0 -1 -13 -0 -0 -0 -0 -0 -0
-0 -0 -0 -0 -0 -0 -0 -0 -0 -0 -0 -0 -0 -0 -0 -0 -0 -0 -0 -0 -0 -0 -0 -0 -0 -0 -0 -0 -0 -0 -0 -0
-0 -0 -0 -0 -0 -0 -0 -0 -0 -0 -0 -0 -0 -0 -0 -0 -0 -0 -0 -0 -0 -0 -0 -0 -0 -0 -0 -0 -36 -2 -17 -0
-0 -0 -0 -0 -0 -0 -0 -0 -0 -0 -0 -0 -0 -0 -0 -0 -0 -0 -0 -0 -0 -0 -0 -0 -0 -0 -0 -0 -106 -5 -0 -9
-0 -0 -0 -0 -0 -0 -0 -0 -0 -0 -0 -0 -0 -0 -0 -0 -0 -0 -0 -0 -0 -0 -0 -0 -0 -0 -0 -0 -0 -14 -9 -6
-0 -0 -0 -0 -0 -0 -0 -0 -0 -0 -0 -0 -0 -0 -0 -0 -0 -0 -0 -0 -0 -0 -0 -0 -0 -0 -0 -0 -0 -7 -42 -0
Wind_Speed
36 35 34 34 33 33 33 33 33 33 31 32 31 28 28 25 23 20 19 20 18 21 19 20 15 16 23 24 23 17 18 20
35 35 34 34 33 33 33 34 34 33 33 34 32 33 33 29 27 22 21 20 20 17 20 16 15 20 18 22 21 18 20 22
35 35 34 34 34 34 34 33 34 32 33 34 34 38 37 30 27 27 23 22 20 19 17 15 18 24 18 21 27 24 27 24
34 34 34 34 34 34 34 34 34 33 33 33 35 34 31 30 30 30 26 23 20 17 15 13 15 14 15 20 32 29 30 28
32 33 34 34 34 34 33 33 33 33 32 32 33 35 36 32 36 32 29 26 22 19 17 15 15 15 16 13 25 28 28 27
32 32 33 33 34 33 33 33 32 33 32 32 32 34 35 36 36 31 28 28 26 21 17 17 15 14 11 15 22 25 28 27
31 31 32 33 33 33 33 33 33 33 33 32 32 34 35 37 35 34 33 31 29 27 24 21 18 14 13 11 20 35 30 33
32 33 33 33 34 34 33 33 33 33 33 33 32 33 34 35 36 35 34 32 31 29 24 22 19 17 15 15 14 17 26 28
32 33 33 34 34 34 34 33 33 33 33 34 33 32 33 34 35 36 37 37 34 30 28 25 18 20 18 18 17 18 26 31
33 33 33 34 34 34 34 34 33 33 33 34 33 32 32 34 36 37 36 39 37 35 29 28 26 25 24 22 23 19 22 25
33 33 34 34 34 34 33 33 32 32 32 32 33 33 32 33 33 35 37 39 38 38 32 31 31 29 25 27 25 22 20 22
34 33 34 35 33 33 33 32 32 31 31 31 32 32 32 32 33 34 36 38 38 36 36 35 35 34 28 27 27 23 23 21
35 35 35 35 34 32 32 32 31 31 31 31 31 31 31 31 32 33 36 37 39 39 40 44 40 37 35 29 32 28 24 27
35 35 35 35 35 34 33 32 31 31 31 31 31 31 31 32 34 35 35 35 38 37 39 36 37 37 40 21 30 28 30 30
35 36 37 37 36 34 33 32 31 30 30 31 31 31 31 32 33 35 35 35 35 38 39 39 41 43 39 41 38 33 33 30
35 35 37 37 35 33 33 31 31 30 30 30 31 31 31 30 32 33 34 34 34 35 37 39 37 41 46 41 39 33 36 33
36 36 36 36 35 33 31 31 31 30 30 30 31 31 31 30 31 32 33 34 33 33 35 37 37 38 39 45 42 42 34 30
36 37 36 35 34 32 31 30 30 30 29 29 30 31 30 30 31 32 32 32 32 32 32 34 37 37 38 38 41 40 51 41
36 36 36 36 33 32 31 30 29 29 29 29 29 30 30 30 30 30 31 31 31 30 31 32 32 32 35 39 41 45 43 39
Wind_Direction
305 306 308 307 305 304 302 303 301 297 291 285 282 273 273 269 271 268 268 263 258 259 253 224 203 216 231 236 233 226 227 229
303 306 307 307 308 305 304 302 302 298 291 282 277 273 271 267 268 264 270 262 257 253 261 233 225 230 222 238 230 224 226 224
304 304 307 307 307 305 302 302 303 300 294 283 277 272 271 267 266 266 266 265 257 253 246 241 225 246 237 229 240 231 228 217
304 305 306 307 306 307 303 301 300 300 298 289 281 275 274 266 262 263 265 266 259 252 251 241 241 232 235 235 238 224 222 224
307 307 306 307 307 306 306 302 298 300 299 292 283 271 268 271 264 261 264 261 259 247 242 250 238 248 246 237 211 231 214 216
308 309 308 308 311 309 305 304 299 297 298 294 286 276 269 269 271 261 260 262 256 254 244 237 239 241 212 210 207 225 224 228
315 313 312 310 312 311 308 305 300 297 295 295 287 279 275 268 268 265 261 261 260 254 251 234 233 228 232 225 179 238 235 233
318 318 314 311 311 309 309 306 301 298 293 292 289 285 276 271 267 267 266 258 260 258 251 249 239 231 223 225 210 227 234 233
321 319 317 314 310 310 309 308 303 299 294 290 289 287 281 275 270 267 265 264 259 257 258 252 238 241 233 229 228 229 242 240
328 323 319 316 313 309 309 306 306 302 295 290 288 287 284 279 275 269 267 265 263 259 256 258 251 248 240 234 242 226 233 242
330 330 326 318 314 311 309 310 306 305 300 293 289 287 286 281 278 274 269 267 268 258 257 258 258 251 248 241 235 241 230 235
325 323 326 324 316 313 310 308 306 307 304 298 291 289 287 285 279 278 273 267 265 262 259 261 260 258 252 242 242 238 237 237
324 324 325 324 321 315 311 308 306 308 305 302 298 293 288 285 281 281 277 271 268 267 265 257 261 258 259 253 246 246 241 245
320 322 321 320 321 317 313 309 306 305 307 303 301 299 292 286 282 282 279 278 270 270 264 262 257 259 257 255 250 245 247 248
314 320 319 321 321 318 314 310 306 305 306 306 303 300 298 291 287 283 281 278 277 270 268 267 262 257 267 260 258 256 253 251
310 311 316 317 315 314 315 313 310 308 307 306 303 302 300 298 291 287 283 280 278 276 272 266 271 266 261 265 269 257 255 251
307 309 311 312 312 311 309 312 313 313 311 308 305 306 303 300 296 291 287 283 281 279 276 274 269 272 270 265 266 259 258 250
308 308 309 308 308 308 307 308 310 313 313 312 308 306 306 302 300 292 292 288 285 282 281 280 275 277 281 278 259 262 256 255
311 308 307 308 304 305 303 305 308 309 311 310 309 308 306 307 302 298 294 291 289 287 284 283 282 283 289 276 272 262 259 258